sat.trackr.live / text

‹ back to catalog

PIESAT-2 11

NORAD 62335 · 2024-241C

PAYLOAD ACTIVE UNKNOWN

§ Identity

Operator
Country
PRC
Launch date
2024-12-16
Launch site
TAISC
Launch vehicle
Mass (kg)
RCS (m²)

External: N2YO · Heavens-Above · Gunter

§ Orbital elements

Epoch: 2026-09-22T23:00:44.844768Z

Period
95.03 min
Inclination
97.5351°
Eccentricity
0.0001937
Mean motion
15.15250247 rev/d
Perigee alt
518.9 km
Apogee alt
521.6 km
Semi-major
6,898.4 km
B*
2.7416e-4
RAAN
212.5334°
Arg perigee
60.2521°
Mean anomaly
299.8904°
Rev number
9,761

§ Raw data

PIESAT-2 111 62335U 24241C   26265.95885237  .00005089  00000+0  27416-3 0  99942 62335  97.5351 212.5334 0001937  60.2521 299.8904 15.15250247 97613

JSON: /api/v1/satellites/62335 · /tle

For live sub-satellite position, see the globe view (requires WebGL).

§ Visibility from observer

Set your observer location to see the next 7 days of passes ≥ 10°. The values pass through the URL so the page stays shareable.

No JS? Fill the form by hand. The geolocation button needs JavaScript.